TimeCDT,TemperatureF,Dew PointF,Humidity,Sea Level PressureIn,VisibilityMPH,Wind Direction,Wind SpeedMPH,Gust SpeedMPH,PrecipitationIn,Events,Conditions,WindDirDegrees,DateUTC
12:15 AM,30.2,15.8,55,30.19,10.0,NW,12.7,-,N/A,,Clear,310,2013-04-19 05:15:00
12:35 AM,28.4,15.8,59,30.19,10.0,WNW,9.2,-,N/A,,Clear,290,2013-04-19 05:35:00
12:55 AM,24.8,14.0,64,30.19,10.0,WNW,10.4,-,N/A,,Clear,290,2013-04-19 05:55:00
1:15 AM,26.6,15.8,64,30.19,10.0,WNW,11.5,-,N/A,,Clear,290,2013-04-19 06:15:00
1:35 AM,26.6,15.8,64,30.19,10.0,WNW,12.7,-,N/A,,Clear,290,2013-04-19 06:35:00
1:55 AM,26.6,15.8,64,30.19,10.0,WNW,13.8,-,N/A,,Clear,290,2013-04-19 06:55:00
2:15 AM,26.6,15.8,64,30.19,10.0,WNW,12.7,-,N/A,,Clear,290,2013-04-19 07:15:00
2:35 AM,26.6,15.8,64,30.19,10.0,WNW,12.7,-,N/A,,Clear,290,2013-04-19 07:35:00
2:55 AM,26.6,15.8,64,30.19,10.0,WNW,12.7,-,N/A,,Clear,290,2013-04-19 07:55:00
3:15 AM,26.6,14.0,59,30.18,10.0,West,12.7,-,N/A,,Clear,280,2013-04-19 08:15:00
3:35 AM,24.8,15.8,69,30.18,10.0,West,11.5,-,N/A,,Clear,280,2013-04-19 08:35:00
3:55 AM,24.8,14.0,64,30.18,10.0,West,10.4,-,N/A,,Clear,280,2013-04-19 08:55:00
4:15 AM,24.8,14.0,64,30.18,10.0,West,11.5,-,N/A,,Clear,280,2013-04-19 09:15:00
4:35 AM,24.8,14.0,64,30.17,10.0,West,11.5,-,N/A,,Clear,280,2013-04-19 09:35:00
4:55 AM,24.8,15.8,69,30.17,10.0,West,11.5,-,N/A,,Clear,270,2013-04-19 09:55:00
5:15 AM,24.8,15.8,69,30.17,10.0,West,10.4,-,N/A,,Clear,270,2013-04-19 10:15:00
5:55 AM,23.0,15.8,74,30.15,10.0,West,10.4,-,N/A,,Clear,270,2013-04-19 10:55:00
6:15 AM,23.0,15.8,74,30.15,10.0,West,9.2,-,N/A,,Clear,270,2013-04-19 11:15:00
6:35 AM,23.0,15.8,74,30.15,10.0,West,9.2,-,N/A,,Clear,270,2013-04-19 11:35:00
6:55 AM,23.0,15.8,74,30.15,10.0,West,9.2,-,N/A,,Clear,270,2013-04-19 11:55:00
7:15 AM,24.8,17.6,74,30.15,10.0,West,11.5,-,N/A,,Clear,270,2013-04-19 12:15:00
7:35 AM,26.6,17.6,69,30.16,10.0,West,11.5,-,N/A,,Clear,260,2013-04-19 12:35:00
7:55 AM,28.4,21.2,74,30.16,10.0,West,12.7,-,N/A,,Clear,260,2013-04-19 12:55:00
8:15 AM,30.2,21.2,69,30.16,10.0,West,15.0,-,N/A,,Clear,270,2013-04-19 13:15:00
8:35 AM,33.8,24.8,70,30.17,10.0,West,17.3,-,N/A,,Clear,270,2013-04-19 13:35:00
8:55 AM,37.4,26.6,65,30.16,10.0,West,17.3,23.0,N/A,,Clear,270,2013-04-19 13:55:00
9:15 AM,39.2,28.4,65,30.16,10.0,West,19.6,-,N/A,,Clear,280,2013-04-19 14:15:00
9:55 AM,46.4,30.2,53,30.16,10.0,WNW,18.4,23.0,N/A,,Clear,290,2013-04-19 14:55:00
10:15 AM,48.2,30.2,50,30.16,10.0,WNW,16.1,-,N/A,,Clear,300,2013-04-19 15:15:00
10:35 AM,51.8,30.2,44,30.16,10.0,WNW,17.3,21.9,N/A,,Clear,300,2013-04-19 15:35:00
10:55 AM,53.6,28.4,38,30.15,10.0,WNW,13.8,21.9,N/A,,Clear,300,2013-04-19 15:55:00
11:15 AM,53.6,28.4,38,30.15,10.0,WNW,13.8,18.4,N/A,,Clear,290,2013-04-19 16:15:00
11:35 AM,55.4,26.6,33,30.15,10.0,WNW,13.8,-,N/A,,Clear,300,2013-04-19 16:35:00
11:55 AM,55.4,24.8,31,30.14,10.0,West,16.1,23.0,N/A,,Clear,280,2013-04-19 16:55:00
12:15 PM,57.2,24.8,29,30.14,10.0,WNW,17.3,21.9,N/A,,Clear,290,2013-04-19 17:15:00
12:35 PM,57.2,24.8,29,30.14,10.0,WNW,12.7,23.0,N/A,,Clear,300,2013-04-19 17:35:00
12:55 PM,59.0,23.0,25,30.13,10.0,WNW,18.4,25.3,N/A,,Clear,290,2013-04-19 17:55:00
1:15 PM,59.0,23.0,25,30.11,10.0,NW,19.6,25.3,N/A,,Clear,310,2013-04-19 18:15:00
1:35 PM,60.8,21.2,22,30.10,10.0,NW,15.0,31.1,N/A,,Clear,310,2013-04-19 18:35:00
1:55 PM,60.8,21.2,22,30.10,10.0,WNW,19.6,24.2,N/A,,Clear,290,2013-04-19 18:55:00
2:15 PM,60.8,21.2,22,30.09,10.0,NW,18.4,24.2,N/A,,Clear,310,2013-04-19 19:15:00
2:35 PM,60.8,21.2,22,30.09,10.0,NW,16.1,20.7,N/A,,Clear,320,2013-04-19 19:35:00
2:55 PM,62.6,19.4,19,30.09,10.0,WNW,11.5,23.0,N/A,,Clear,290,2013-04-19 19:55:00
3:15 PM,62.6,21.2,20,30.08,10.0,North,13.8,21.9,N/A,,Clear,350,2013-04-19 20:15:00
3:35 PM,62.6,21.2,20,30.08,10.0,NW,10.4,24.2,N/A,,Clear,310,2013-04-19 20:35:00
3:55 PM,62.6,19.4,19,30.07,10.0,North,11.5,25.3,N/A,,Clear,10,2013-04-19 20:55:00
4:15 PM,62.6,19.4,19,30.06,10.0,NNW,15.0,20.7,N/A,,Clear,340,2013-04-19 21:15:00
4:35 PM,62.6,19.4,19,30.05,10.0,WNW,5.8,17.3,N/A,,Clear,290,2013-04-19 21:35:00
4:55 PM,64.4,19.4,18,30.05,10.0,NNW,10.4,20.7,N/A,,Clear,330,2013-04-19 21:55:00
5:15 PM,62.6,19.4,19,30.04,10.0,West,12.7,19.6,N/A,,Clear,270,2013-04-19 22:15:00
5:35 PM,62.6,19.4,19,30.04,10.0,West,8.1,-,N/A,,Clear,280,2013-04-19 22:35:00
5:55 PM,62.6,19.4,19,30.03,10.0,NNW,9.2,-,N/A,,Clear,340,2013-04-19 22:55:00
6:15 PM,62.6,17.6,18,30.03,10.0,Calm,Calm,-,N/A,,Clear,0,2013-04-19 23:15:00
6:35 PM,62.6,17.6,18,30.03,10.0,West,10.4,-,N/A,,Clear,270,2013-04-19 23:35:00
6:55 PM,60.8,17.6,19,30.02,10.0,WNW,9.2,-,N/A,,Clear,300,2013-04-19 23:55:00
7:15 PM,60.8,17.6,19,30.02,10.0,WNW,3.5,-,N/A,,Clear,300,2013-04-20 00:15:00
7:35 PM,60.8,17.6,19,30.01,10.0,Calm,Calm,-,N/A,,Clear,0,2013-04-20 00:35:00
7:55 PM,60.8,17.6,19,30.01,10.0,Calm,Calm,-,N/A,,Clear,0,2013-04-20 00:55:00
8:15 PM,59.0,15.8,19,30.01,10.0,Calm,Calm,-,N/A,,Clear,0,2013-04-20 01:15:00
8:35 PM,55.4,15.8,21,30.01,10.0,SE,4.6,-,N/A,,Clear,130,2013-04-20 01:35:00
8:55 PM,55.4,17.6,23,30.01,10.0,East,5.8,-,N/A,,Clear,100,2013-04-20 01:55:00
9:15 PM,51.8,15.8,24,30.01,10.0,ESE,5.8,-,N/A,,Clear,110,2013-04-20 02:15:00
9:35 PM,51.8,15.8,24,30.02,10.0,SSE,9.2,-,N/A,,Clear,150,2013-04-20 02:35:00
9:55 PM,46.4,15.8,29,30.03,10.0,SSE,9.2,-,N/A,,Clear,150,2013-04-20 02:55:00
10:15 PM,44.6,17.6,34,30.03,10.0,SE,9.2,-,N/A,,Clear,140,2013-04-20 03:15:00
10:35 PM,44.6,17.6,34,30.03,10.0,SE,9.2,-,N/A,,Clear,140,2013-04-20 03:35:00
10:55 PM,44.6,17.6,34,30.02,10.0,ESE,9.2,-,N/A,,Clear,120,2013-04-20 03:55:00
11:15 PM,46.4,19.4,34,30.02,10.0,ESE,9.2,-,N/A,,Clear,120,2013-04-20 04:15:00
11:35 PM,48.2,21.2,34,30.01,10.0,SE,10.4,-,N/A,,Clear,130,2013-04-20 04:35:00
11:55 PM,46.4,17.6,32,30.01,10.0,SSE,10.4,-,N/A,,Clear,150,2013-04-20 04:55:00